Weather in Zavitinsk

Russia / Amur Oblast     50°06′23″N   129°26′21″E
temp.,
°C
wind,
m/s
gust,
m/s
humid.,
%
clouds,
%
prec.,
mm/h
press.,
hPa
HPBL,
m
28 january, thu
thu2800:00−28w1210095 0.0 102119
03:00−29wsw1210095 0.1 102119
06:00−31wnw129960 0.0 102119
09:00−32w119841 0.0 102219
12:00−26wnw118830 0.0 1021258
15:00−25nw228861 0.0 1020364
18:00−30nw239651 0.0 102127
21:00−32nw239826 0.0 102231
29 january, fri
fri2900:00−33nw2210056 0.0 102319
03:00−34nw239959 0.0 102333
06:00−35nw23990 0.0 102328
09:00−34nw23977 0.0 102456
12:00−29nw349019 0.0 1024279
15:00−27nw249021 0.0 1023358
18:00−32nw339524 0.0 102537
21:00−33nnw339412 0.0 102639
30 january, sat
sat3000:00−33nnw359353 0.0 102889
03:00−34nnw359468 0.0 102899
06:00−34nnw359651 0.0 102981
09:00−34nnw369526 0.0 1030154
12:00−30nnw36915 0.0 1030291
15:00−29nw359114 0.0 1030306
18:00−33nw359519 0.0 103277
21:00−34nw239659 0.0 103247
31 january, sun
sun3100:00−35nw22971 0.0 103320
03:00−36wnw22970 0.0 103319
06:00−37wnw11970 0.0 103319
09:00−35wnw11940 0.0 103319
12:00−28w11841 0.0 1031292
15:00−27w00832 0.0 1030339
18:00−33wnw119721 0.0 103119
21:00−34ne119618 0.0 103119
1 february, mon
mon100:00−34nne11950 0.0 103019
03:00−35n22970 0.0 103019
06:00−35nne33960 0.0 102739
09:00−34n359441 0.0 1027145
12:00−30nnw4791100 0.0 1024326
15:00−30nnw589099 0.0 1021397
18:00−34nw499487 0.0 1021206
21:00−35nw479444 0.0 1021154